sat.trackr.live / text

‹ back to catalog

SHIYAN-19 (SY-19)

NORAD 55861 · 2023-034A

PAYLOAD ACTIVE UNKNOWN

§ Identity

Operator
Country
PRC
Launch date
2023-03-15
Launch site
JSC
Launch vehicle
Mass (kg)
RCS (m²)

External: N2YO · Heavens-Above · Gunter

§ Orbital elements

Epoch: 2026-09-21T22:33:28.879776Z

Period
92.24 min
Inclination
97.3775°
Eccentricity
0.0004607
Mean motion
15.61063014 rev/d
Perigee alt
381.5 km
Apogee alt
387.7 km
Semi-major
6,762.7 km
B*
5.2070e-4
RAAN
124.9420°
Arg perigee
9.7712°
Mean anomaly
350.3634°
Rev number
19,763

§ Raw data

SHIYAN-19 (SY-19)1 55861U 23034A   26264.93991759  .00043868  00000+0  52070-3 0  99942 55861  97.3775 124.9420 0004607   9.7712 350.3634 15.61063014197637

JSON: /api/v1/satellites/55861 · /tle

For live sub-satellite position, see the globe view (requires WebGL).

§ Visibility from observer

Set your observer location to see the next 7 days of passes ≥ 10°. The values pass through the URL so the page stays shareable.

No JS? Fill the form by hand. The geolocation button needs JavaScript.